Theta_e
312 313 312 313 313 312 311 310 312 316 314 313 314 314 316 317 314 316 319 315 313 314 315 314 314 314 313 314 315 312 311 314 315 314 313 312 312 311 312 312 313 315 317 317 319 322 324 327 329 330 331 332 333 334 334 334 334 336 335 334 334 334 334 334 333 334 335 335 335 335 335 335 335 335 335 335 334 334 334 334 333 332 331 331 330 329
312 313 312 311 312 311 311 311 311 312 311 311 314 313 314 316 315 315 316 315 313 313 316 316 314 313 313 314 313 310 311 314 315 314 314 313 312 311 312 312 312 313 313 315 318 319 322 325 327 329 330 331 332 333 334 334 334 335 335 335 335 334 334 334 334 334 334 335 335 335 335 335 335 335 335 335 335 334 334 334 334 332 331 330 330 330
312 313 312 311 312 312 311 312 311 311 311 312 314 314 314 316 316 315 315 315 313 313 318 318 314 314 314 313 312 311 313 314 312 313 314 314 314 312 311 311 312 312 313 316 317 316 319 324 326 327 329 330 331 332 333 334 334 334 334 335 335 335 334 334 334 334 334 334 334 335 335 335 335 335 335 335 334 334 334 334 334 333 332 330 330 330
312 312 311 311 311 311 311 311 311 311 311 313 315 315 315 315 315 314 313 314 313 312 316 317 315 314 313 313 313 313 312 312 312 313 313 313 314 314 312 311 312 313 314 315 315 313 314 319 324 326 328 330 330 331 332 333 334 334 334 334 335 335 335 335 334 334 334 334 334 335 334 334 334 334 334 335 335 334 334 334 334 333 333 332 330 330
312 312 312 312 311 311 311 311 312 311 311 315 318 317 317 316 316 315 314 315 314 313 316 315 314 317 318 315 314 312 311 311 312 313 313 313 313 313 313 313 312 313 313 314 315 313 310 313 320 325 327 329 329 330 331 332 333 333 334 334 334 335 335 335 335 335 334 334 334 334 334 334 334 333 333 333 334 334 334 334 334 333 333 332 331 331
312 312 312 312 311 311 311 311 313 313 312 315 318 322 322 317 316 318 318 316 314 315 317 312 313 327 332 325 319 315 312 312 311 312 313 313 312 311 313 313 313 314 314 314 314 312 309 310 316 321 325 327 328 329 330 331 332 332 333 333 334 334 334 335 335 334 334 333 333 333 333 333 333 332 332 332 333 333 333 333 333 333 333 332 332 331
314 312 312 312 312 313 313 312 314 314 312 313 317 324 325 319 319 321 319 319 318 315 316 314 314 323 325 323 324 320 317 316 313 313 314 311 311 312 311 312 313 313 314 314 314 313 310 308 312 317 321 325 327 328 329 330 331 331 332 332 333 333 334 334 334 334 334 333 333 333 333 332 332 332 332 332 332 332 332 332 332 332 332 332 332 332
314 312 312 313 313 313 312 312 315 314 312 317 321 323 325 322 322 322 318 323 325 317 319 324 319 315 316 319 321 318 317 320 319 316 316 312 310 312 311 311 312 312 314 314 315 315 311 308 310 314 318 322 325 326 328 329 329 330 331 331 332 332 333 333 334 333 333 333 333 333 332 331 331 331 331 331 331 331 331 331 332 331 331 332 332 332
314 313 313 313 313 313 311 311 316 315 314 321 323 321 322 322 324 323 321 325 322 315 320 325 317 314 322 327 324 317 314 319 322 320 321 317 312 311 310 311 312 312 313 314 316 315 310 307 309 312 315 319 322 325 327 328 329 329 330 331 331 331 332 332 333 333 333 333 332 332 332 331 330 330 329 330 330 330 330 330 330 331 331 331 331 331
314 313 314 313 312 313 312 314 319 316 314 322 322 320 322 323 323 324 326 327 319 314 321 324 316 314 322 328 325 317 313 316 319 318 319 319 317 314 313 312 312 315 316 319 320 313 307 309 311 311 313 316 319 322 325 327 328 329 330 330 330 331 331 331 332 333 333 332 332 332 331 330 330 329 329 329 329 329 329 329 329 330 330 330 330 330
314 311 315 315 314 315 314 317 320 318 316 319 320 320 321 324 328 332 335 329 316 318 328 329 321 312 314 324 325 315 315 317 315 316 317 317 323 326 324 318 314 317 321 324 327 316 307 310 312 312 313 313 316 320 323 325 327 328 329 330 330 331 331 331 332 332 332 332 332 331 331 330 329 329 329 328 328 328 328 329 329 329 329 330 330 330
314 313 316 316 316 319 317 317 319 318 317 320 324 321 318 324 330 333 333 325 316 323 330 325 319 313 313 323 325 317 316 317 314 316 318 317 326 334 334 329 323 324 325 327 332 324 314 314 312 311 312 312 314 316 318 322 324 325 327 328 330 331 331 332 331 332 332 332 332 331 330 330 330 329 329 329 328 328 329 329 329 329 329 330 330 330
315 317 317 313 313 317 319 318 317 318 318 319 322 318 317 323 323 322 325 322 320 323 320 316 316 316 315 318 319 316 315 316 314 315 317 318 327 334 333 331 328 328 329 330 332 329 325 319 312 310 312 312 313 314 315 317 319 321 324 325 327 328 330 331 331 332 332 331 331 331 331 330 330 329 329 329 329 329 329 329 329 329 329 330 330 331
317 321 317 313 314 314 317 317 317 320 317 314 317 317 320 322 315 315 320 318 319 320 315 312 315 317 318 317 317 316 313 314 314 314 316 320 328 333 329 325 325 325 328 331 331 333 332 318 309 311 313 312 312 312 313 313 314 316 317 320 323 325 326 328 329 330 331 332 331 331 331 330 330 330 329 329 329 329 329 329 330 330 330 330 330 330
318 320 316 316 315 314 316 315 319 323 316 314 318 318 321 321 317 317 320 319 319 319 314 311 316 322 321 318 318 316 313 314 315 314 317 322 326 325 322 321 323 324 327 330 332 336 328 311 309 314 313 313 313 312 312 312 312 313 313 315 318 321 323 325 326 327 329 331 331 331 330 330 330 330 330 330 329 329 329 329 330 330 329 329 328 328
316 317 317 317 314 314 317 318 319 318 315 317 319 318 319 322 325 324 321 326 325 319 317 314 318 327 321 313 315 312 312 316 315 313 316 321 321 318 319 323 324 325 328 330 333 337 325 310 311 315 314 314 313 310 311 311 311 312 312 313 315 318 321 323 325 326 327 328 329 330 330 329 329 329 329 330 329 329 329 329 328 328 328 327 327 327
315 315 316 316 313 313 316 318 319 318 316 317 315 319 322 319 326 324 314 318 320 316 320 316 317 327 320 313 317 315 314 316 314 313 314 317 317 316 321 325 324 325 329 331 334 335 324 313 314 316 315 315 312 310 312 311 311 311 311 312 313 315 319 322 324 325 326 327 328 328 329 328 328 329 329 329 329 328 328 327 327 327 327 327 326 325
317 317 316 316 315 313 312 314 318 318 317 317 315 319 319 314 322 323 314 317 316 316 325 318 316 323 319 318 325 318 313 315 315 316 316 316 317 316 320 322 322 326 329 330 331 328 318 311 313 316 316 316 315 314 314 313 312 311 310 311 311 312 316 320 324 325 325 327 327 327 328 327 328 328 328 328 327 326 326 326 326 326 325 325 324 323
319 320 316 313 315 315 314 315 317 315 313 317 318 316 316 317 320 319 316 319 314 314 325 321 315 320 318 321 326 317 313 318 316 316 317 316 316 317 319 320 323 329 330 329 330 328 319 312 313 316 316 316 316 316 315 314 314 313 312 311 310 311 313 317 321 323 325 326 326 327 326 326 327 326 327 326 325 325 325 324 324 324 323 323 322 321
318 322 318 312 312 315 316 315 316 316 314 315 315 312 315 321 323 319 317 320 317 316 324 322 316 320 323 321 321 316 316 320 316 317 320 317 316 317 321 324 326 328 329 328 329 329 321 312 312 315 316 317 316 316 317 317 316 316 315 314 313 313 315 317 320 322 323 324 325 325 325 325 325 325 325 325 324 324 323 323 323 322 321 321 320 320
315 319 320 315 312 314 318 318 317 317 315 314 315 313 312 315 320 320 318 320 323 322 324 321 316 324 328 319 316 315 314 316 317 319 323 322 319 318 321 328 330 326 325 326 325 325 317 310 312 315 316 316 317 317 318 318 318 318 317 316 316 316 318 320 321 321 322 323 323 323 323 323 323 324 324 323 323 323 322 322 322 320 320 319 319 318
316 316 319 317 315 316 318 316 316 317 316 316 315 314 314 315 316 316 315 317 320 321 324 322 316 323 330 319 313 313 312 313 314 317 324 326 321 319 321 325 329 326 325 324 323 322 314 308 311 314 315 316 317 317 319 319 319 319 318 317 317 318 320 320 321 321 321 322 322 322 322 322 322 322 322 322 322 322 321 321 319 318 318 318 318 317
319 319 319 318 317 318 317 312 311 315 316 316 315 314 315 315 315 316 320 320 316 315 319 319 314 321 331 324 315 313 313 314 313 315 321 324 323 326 329 327 324 324 324 322 321 318 310 306 309 312 313 315 316 316 318 318 319 318 318 318 318 318 319 319 320 320 320 321 321 321 321 321 320 320 320 320 320 320 319 318 318 317 316 316 316 316
320 320 320 319 316 319 321 315 312 312 314 315 315 316 315 315 321 329 330 324 316 313 316 314 312 322 336 329 318 316 315 313 313 315 320 325 327 331 333 326 321 321 322 320 317 312 305 304 307 309 310 312 313 314 316 317 317 318 317 317 317 317 317 317 317 317 318 319 319 319 319 319 318 318 318 318 318 318 317 317 317 316 315 315 314 312
320 318 319 320 318 319 322 320 315 313 314 317 318 316 314 316 321 323 321 316 315 320 322 315 313 319 327 320 312 313 314 312 315 318 319 324 328 329 326 321 318 321 321 317 314 311 308 306 306 306 308 310 311 312 314 315 316 316 316 315 315 315 315 315 315 315 316 316 316 316 316 317 317 316 316 316 316 316 316 316 315 314 313 311 309 307
325 321 317 319 319 317 317 317 316 316 315 317 319 318 316 316 316 316 317 315 314 321 322 315 313 314 314 312 311 313 315 314 316 316 313 316 323 325 323 320 318 319 319 317 314 313 311 307 304 304 306 307 309 310 312 314 315 315 314 314 314 314 315 314 315 315 315 315 315 315 315 315 315 315 315 315 315 315 314 313 312 310 308 306 304 304
327 322 315 316 316 314 315 316 318 319 317 316 318 318 317 315 315 319 323 318 315 320 317 313 316 316 312 312 313 315 316 317 315 313 312 315 319 320 320 318 317 316 316 315 313 312 311 309 305 302 304 305 306 308 310 312 313 314 313 313 314 314 315 315 315 315 315 315 315 314 314 314 314 314 314 314 312 311 309 308 307 305 304 303 303 302
326 319 315 316 314 315 321 323 319 318 316 315 316 316 316 315 315 318 320 315 316 319 314 313 317 316 313 315 315 315 316 316 315 313 313 313 315 318 319 318 317 315 313 312 312 312 312 311 306 301 301 304 304 306 308 309 310 311 312 312 313 314 314 314 315 314 314 313 313 312 312 312 312 312 311 309 308 306 305 304 304 303 302 301 299 296
322 318 315 315 314 316 321 322 320 317 315 316 317 316 316 317 316 316 315 315 317 315 313 317 320 316 315 317 315 314 314 314 312 310 310 310 315 320 321 319 318 317 315 314 313 312 310 310 306 300 299 301 302 304 304 305 307 308 310 311 311 312 313 313 313 313 312 312 311 310 309 309 308 307 306 304 303 303 303 302 301 300 298 296 294 292
317 318 316 314 314 315 316 316 317 317 316 316 317 317 316 317 316 314 313 314 316 314 314 320 322 317 315 315 315 315 312 310 309 310 310 310 316 322 322 321 321 318 317 316 313 309 308 307 303 298 298 299 300 301 302 303 305 307 308 309 309 310 310 311 311 310 308 308 307 306 305 304 304 303 302 302 301 301 301 299 297 295 293 292 291 290
314 317 315 314 315 313 314 315 314 315 316 316 316 316 315 316 315 314 313 313 314 314 313 316 318 315 313 314 316 317 313 310 310 314 313 311 317 325 325 323 322 319 316 314 311 308 307 305 301 297 297 298 299 300 302 302 304 305 306 306 307 307 307 307 308 306 305 304 303 302 302 301 301 301 300 300 299 297 296 294 293 292 291 290 290 289
315 315 312 314 317 314 314 316 315 313 314 314 316 316 315 315 314 313 314 314 314 314 314 314 314 313 313 314 314 314 314 314 315 318 316 312 317 326 328 325 322 319 316 312 310 308 307 305 302 298 297 297 298 300 301 301 302 303 303 304 304 304 304 305 304 303 302 301 300 300 300 300 300 299 298 296 295 293 292 291 291 290 290 289 289 289
318 317 314 316 318 314 313 317 318 315 314 314 315 314 313 313 313 313 314 315 313 313 313 313 313 313 315 316 315 314 315 317 318 320 318 314 315 321 325 326 323 318 314 312 310 309 307 304 301 298 297 298 299 299 300 301 301 300 301 302 302 302 302 302 301 300 299 299 298 299 299 299 298 296 294 293 292 291 290 290 290 290 289 289 289 289
318 318 316 316 317 316 313 315 318 317 317 316 316 315 313 313 313 313 314 314 313 312 312 312 312 315 317 317 318 318 317 316 317 318 315 313 316 319 319 320 320 316 314 311 310 308 304 300 299 298 298 298 299 299 300 300 299 299 300 300 300 300 299 299 298 298 297 297 297 297 297 296 294 292 291 291 290 289 289 289 289 289 289 289 289 289
316 317 317 318 319 317 313 314 318 317 315 316 320 317 312 311 313 314 314 313 313 313 313 312 312 314 317 318 320 322 321 319 318 319 317 313 314 319 320 318 316 315 315 314 311 308 303 298 297 297 297 298 299 299 299 299 298 298 298 298 298 297 297 297 296 295 295 295 294 294 294 293 291 290 290 289 289 289 289 289 289 289 289 289 289 289
314 316 317 317 316 315 314 315 317 316 313 316 320 316 311 311 312 313 314 314 313 313 313 313 312 311 314 317 319 323 325 320 317 321 324 320 315 317 319 319 315 314 314 313 310 307 301 298 297 297 297 298 298 298 298 298 297 296 295 296 296 296 295 295 294 293 293 292 291 291 291 291 290 289 289 289 289 289 289 289 289 289 289 289 288 288
312 315 317 313 312 316 318 315 315 315 313 312 315 313 311 313 313 313 314 314 313 312 312 312 311 311 313 315 316 319 320 315 315 319 323 324 321 318 317 316 313 311 310 307 306 304 301 298 298 297 297 298 297 297 297 296 296 295 294 294 294 294 293 292 292 291 291 290 290 289 290 289 289 289 288 288 289 289 289 289 289 288 288 288 288 288
310 314 316 313 313 317 319 315 314 315 312 310 314 314 312 314 314 313 314 314 313 312 311 311 312 311 312 315 317 318 315 313 314 314 315 322 327 323 317 311 305 304 305 304 302 301 299 298 298 297 297 297 296 296 296 295 295 294 293 292 292 291 291 290 290 289 289 289 289 289 289 289 289 289 289 288 289 289 288 288 288 288 288 288 288 287
313 315 315 313 314 315 316 315 313 312 310 312 317 316 313 314 315 314 314 314 314 314 313 311 311 312 313 315 317 317 315 314 314 312 315 322 325 319 314 311 302 298 301 303 300 299 297 297 297 297 297 296 295 295 295 294 293 293 291 290 290 289 289 289 288 288 289 288 288 288 289 289 289 289 288 289 289 288 288 288 288 287 287 287 287 287
313 314 313 314 315 314 313 314 313 311 312 318 320 315 311 312 314 316 316 313 314 318 318 313 312 313 314 314 315 315 315 314 312 314 319 322 318 309 306 307 302 295 295 298 298 297 297 296 296 296 295 295 294 294 294 293 292 291 290 289 289 289 288 288 288 289 289 288 288 288 288 288 289 288 288 289 288 288 288 288 287 287 287 287 287 286
314 315 314 313 314 314 313 314 314 313 315 320 319 312 310 312 313 314 315 314 317 321 317 313 313 313 312 313 313 312 313 312 313 319 321 317 315 308 299 295 295 294 294 295 295 295 295 295 295 295 294 294 294 293 293 293 291 290 289 288 288 288 288 289 288 288 288 288 288 288 288 288 288 288 288 288 288 288 287 287 287 287 287 287 286 286
315 315 314 311 312 314 314 313 313 314 314 316 312 307 310 313 313 313 314 316 321 323 314 310 313 315 313 314 313 312 312 314 316 322 319 312 312 309 297 291 292 293 292 293 294 294 294 294 294 294 293 293 293 292 292 291 290 288 288 287 288 288 288 288 288 287 287 287 287 287 288 288 288 288 288 288 288 288 287 286 286 286 286 286 286 285
313 313 313 311 311 314 314 312 312 313 311 311 309 308 311 314 316 318 317 315 319 326 321 314 314 314 314 314 313 312 313 315 315 317 313 306 304 302 296 292 293 292 290 291 293 293 294 293 292 292 292 292 291 291 291 291 289 287 287 287 287 288 287 287 287 287 286 287 287 287 287 287 287 288 288 287 287 287 287 286 286 286 286 286 286 285
312 313 314 312 311 314 313 310 313 316 310 308 310 310 310 314 321 323 320 316 317 321 322 320 317 313 312 316 316 312 313 316 314 311 308 303 300 297 294 292 291 290 290 291 291 292 292 292 290 290 290 289 289 289 290 290 289 286 285 286 286 286 286 285 285 285 285 286 286 287 287 287 287 287 287 287 286 286 286 286 285 285 285 285 285 285
311 311 314 314 313 314 312 310 315 320 311 307 314 316 310 314 321 321 318 319 321 317 314 319 322 316 310 313 315 312 313 315 311 307 306 303 298 295 293 291 289 290 290 290 290 291 291 290 289 288 288 287 288 288 288 288 288 286 284 285 285 285 285 285 284 285 286 286 286 287 287 286 286 286 286 286 286 286 286 285 285 285 284 284 285 285
314 313 314 315 314 313 311 311 315 316 310 308 315 316 312 315 319 317 317 322 325 320 315 319 330 330 316 309 312 314 314 312 308 303 301 299 296 293 291 290 289 289 289 289 289 289 289 289 288 287 286 286 286 287 287 287 288 287 286 285 285 285 285 285 285 285 286 286 286 286 285 285 284 284 285 285 285 286 285 285 285 285 284 284 284 284
314 313 312 315 315 312 311 313 314 314 312 313 315 312 310 314 316 314 319 325 326 325 321 321 327 328 316 309 312 317 312 307 306 303 297 295 295 293 291 290 289 288 288 288 288 288 288 287 286 285 285 285 285 286 286 286 286 286 286 285 285 284 284 284 285 285 285 285 285 284 284 284 284 284 284 284 284 284 284 284 284 284 284 283 283 282
313 311 312 316 315 311 312 314 313 313 313 313 315 314 312 315 317 314 314 316 316 316 314 312 313 315 313 310 311 314 310 304 305 305 298 294 294 292 290 289 288 287 287 287 287 288 287 286 285 285 284 284 284 284 284 284 284 284 284 284 284 284 284 284 285 286 285 285 284 284 284 285 285 285 284 284 283 283 283 283 284 284 283 282 282 282
310 310 313 316 313 311 311 311 309 311 311 310 313 316 313 313 317 314 308 307 310 312 312 309 306 307 310 310 308 311 313 306 301 301 299 295 293 292 290 289 287 287 287 286 286 287 286 286 285 284 283 283 282 282 283 283 283 283 284 284 284 284 285 285 285 285 284 284 284 284 284 284 284 284 283 283 282 282 282 282 282 282 281 280 280 280
310 311 312 313 311 310 311 310 309 312 314 313 314 316 313 309 311 313 312 311 313 314 314 313 307 302 303 303 302 309 317 310 298 296 298 295 293 292 289 287 287 286 286 285 285 285 285 285 285 284 283 282 281 281 282 282 282 283 284 284 284 285 285 285 284 283 283 283 283 283 283 283 282 282 282 282 282 281 280 279 279 279 279 278 278 277
312 313 311 311 311 310 312 311 310 313 317 315 313 313 311 306 308 315 317 315 314 311 311 314 315 310 307 301 295 301 312 309 297 295 297 295 292 290 289 287 287 285 284 284 284 284 284 284 284 283 282 281 280 281 281 282 283 283 284 284 284 284 285 285 284 282 282 282 283 283 282 282 282 282 282 282 281 280 279 278 277 277 277 277 277 276
Wind_Speed
5 6 8 10 10 11 10 7 7 6 5 5 4 5 6 6 5 5 3 4 2 5 6 8 8 10 9 10 9 5 3 4 8 8 8 7 6 7 8 9 10 11 12 16 23 27 30 33 34 35 35 35 35 36 37 36 36 38 38 39 40 40 39 38 38 38 38 37 36 35 36 36 36 35 34 34 33 32 32 30 29 29 28 28 29 27
4 9 9 8 8 9 9 7 8 8 5 4 3 5 5 5 5 5 3 4 2 3 5 2 5 10 9 11 9 2 2 7 10 9 9 10 8 7 8 11 10 9 8 8 15 23 27 29 32 33 34 34 34 36 37 38 38 38 38 40 40 40 40 40 40 39 39 39 38 38 38 38 36 36 36 35 35 34 32 31 30 29 28 27 29 30
6 10 8 7 7 7 7 7 9 9 7 5 3 4 5 4 3 4 3 2 2 2 4 2 3 9 10 10 8 4 7 9 9 10 11 10 10 9 10 10 9 9 8 7 10 18 24 27 30 31 32 34 36 37 38 39 39 38 38 39 40 41 42 42 41 41 40 40 40 38 37 36 35 35 35 35 34 33 32 32 31 30 30 28 28 29
7 6 7 8 8 9 9 8 9 7 5 5 3 4 4 3 3 3 3 1 2 2 1 0 1 7 8 7 8 9 10 9 7 9 11 10 11 12 11 10 10 11 11 10 9 12 19 23 26 29 32 34 35 36 37 38 38 38 38 39 40 41 42 43 43 43 42 40 38 37 35 34 33 33 33 33 33 33 33 33 33 32 31 30 28 28
5 4 8 9 9 12 10 9 9 6 4 5 5 5 4 5 6 4 2 2 2 2 2 2 4 6 5 5 9 7 5 7 7 8 10 10 11 11 8 8 11 12 11 11 11 10 14 20 25 30 33 33 34 36 38 39 40 40 40 41 41 42 42 43 43 43 42 39 37 35 32 29 29 29 28 30 34 35 34 35 35 34 32 31 30 29
7 6 10 11 9 11 11 10 9 7 5 5 6 8 7 9 8 4 5 5 3 2 2 1 1 6 4 4 10 5 3 7 6 7 11 11 11 9 8 10 10 9 9 10 11 10 13 19 25 29 31 32 33 36 38 40 41 41 41 42 42 41 42 43 43 43 42 40 38 36 33 30 29 29 30 35 37 37 36 36 35 34 32 31 30 30
6 6 10 13 11 10 9 8 8 8 6 4 6 7 6 6 7 8 8 5 3 4 2 3 4 5 6 4 8 4 5 9 6 7 11 11 9 9 10 11 9 9 9 8 8 9 11 17 20 24 29 32 34 38 39 39 40 41 40 41 41 41 41 42 43 42 42 40 39 39 39 37 35 33 36 39 37 35 35 34 33 33 32 31 30 29
7 8 9 13 12 10 9 7 7 9 7 4 5 7 8 7 8 9 9 4 2 3 2 4 4 3 5 6 7 3 4 9 8 9 11 9 10 11 11 11 10 11 10 8 9 9 11 16 20 24 31 35 38 39 38 37 38 40 40 40 41 41 41 41 41 41 42 41 40 40 40 39 38 37 36 35 32 32 32 31 32 32 31 31 29 28
5 11 10 12 10 7 8 7 8 10 6 6 4 7 8 7 8 6 6 3 1 3 1 4 2 2 6 7 5 3 3 8 9 10 10 9 10 11 11 10 10 10 9 8 9 9 11 16 23 27 31 34 37 37 36 38 38 38 39 39 39 40 40 40 40 41 42 42 41 40 39 38 37 37 33 29 28 28 29 29 31 31 30 29 28 27
2 8 9 12 9 7 8 6 9 11 6 4 6 7 5 5 5 5 5 4 2 1 4 6 3 2 5 6 4 3 3 7 9 9 9 8 8 8 9 9 9 8 7 8 8 9 13 18 22 25 26 27 30 33 33 35 36 36 36 36 37 38 39 39 39 40 41 41 40 39 38 37 34 32 30 26 25 25 26 28 29 29 29 28 27 26
2 1 1 6 6 6 7 4 4 8 7 7 8 6 7 5 4 4 3 4 2 2 6 7 4 3 4 5 5 4 5 7 7 7 8 8 7 7 8 8 8 7 7 7 7 8 11 13 15 18 21 23 25 28 29 30 32 33 34 35 36 37 37 38 38 39 40 40 40 39 37 36 33 30 29 27 25 24 25 27 28 28 27 26 25 24
2 1 1 1 2 3 6 4 2 1 5 7 5 5 5 3 4 4 4 3 2 5 6 5 2 4 4 5 5 6 7 6 6 6 8 8 8 7 6 6 7 7 6 7 6 7 7 7 8 11 15 18 20 23 27 29 30 31 32 33 34 35 35 37 37 38 38 38 39 39 36 34 32 31 30 29 28 26 26 26 27 26 24 24 23 22
1 2 2 1 1 3 7 4 3 2 2 4 5 7 6 1 2 1 2 1 4 5 4 3 2 3 5 8 9 10 10 9 8 8 8 8 7 6 6 6 6 5 6 6 6 6 5 5 7 9 11 13 15 18 23 26 28 28 30 31 32 34 34 34 35 36 37 37 38 37 36 33 31 30 30 30 30 28 27 26 25 24 23 22 22 21
2 5 3 1 2 2 7 7 4 2 1 4 7 7 5 3 3 4 3 1 3 4 3 3 2 2 4 7 11 15 15 11 7 8 9 7 7 7 6 5 5 4 5 5 5 5 5 5 8 9 10 11 12 14 16 19 22 24 26 27 29 30 31 31 32 33 34 35 36 36 35 33 31 30 29 29 29 29 27 26 24 23 23 22 20 19
7 4 4 5 2 2 5 5 6 8 4 4 5 6 6 5 5 5 3 2 4 2 2 2 1 3 4 4 8 11 12 9 4 7 7 7 7 5 5 5 5 6 5 4 4 4 5 7 9 10 11 12 13 14 14 15 17 19 21 23 24 25 26 27 29 30 31 32 33 33 32 31 30 29 29 28 27 27 26 24 22 21 21 19 17 16
10 5 4 2 1 4 4 3 4 9 5 4 3 5 4 5 5 3 3 5 5 1 1 2 3 5 4 6 9 6 6 7 5 5 4 6 6 3 4 6 5 5 5 5 4 5 6 7 9 10 10 11 12 14 15 15 16 16 17 19 20 21 22 24 25 26 27 28 28 29 28 28 27 26 26 25 25 25 24 22 21 20 17 15 14 12
8 2 4 2 1 2 4 4 2 4 5 2 3 4 5 3 7 5 2 1 3 2 3 2 3 5 3 7 10 5 5 6 4 5 5 6 5 3 5 6 5 6 5 5 5 4 5 5 6 8 9 9 9 12 14 15 16 17 18 18 19 19 19 20 21 22 22 23 23 23 23 23 22 22 22 23 22 21 19 17 16 15 14 13 13 12
6 2 4 1 2 2 1 3 1 2 4 5 4 6 3 2 3 4 3 1 3 2 4 1 4 4 1 3 7 6 6 8 6 6 6 6 5 5 7 7 6 6 6 5 4 3 3 3 4 5 7 8 8 9 10 11 12 14 17 18 18 18 18 18 18 18 18 18 19 18 19 18 18 19 20 20 20 18 16 15 15 15 14 14 13 12
5 3 4 2 2 3 3 3 1 3 1 4 5 5 4 3 2 2 3 2 2 3 4 3 3 3 4 5 5 5 7 9 8 7 6 7 7 7 8 7 7 6 5 5 4 3 2 3 4 6 7 7 7 7 7 8 9 10 12 14 15 16 16 16 16 16 16 16 16 16 16 16 16 17 17 18 18 18 17 16 15 15 14 12 11 11
3 4 2 2 1 1 3 2 6 3 1 2 1 2 2 2 4 3 3 4 4 4 3 3 3 3 6 6 6 8 9 8 8 7 7 9 9 8 7 7 6 5 5 5 4 3 2 3 5 7 8 8 8 8 8 8 8 9 10 11 12 13 14 15 15 15 15 15 16 16 15 15 15 16 16 17 18 18 17 16 15 12 10 10 9 9
2 4 3 2 2 1 2 3 7 8 4 2 3 5 3 1 2 2 1 3 4 4 4 2 3 5 7 5 8 11 11 9 8 7 7 9 8 8 7 5 5 5 5 5 4 3 3 4 6 7 8 9 9 9 9 9 9 9 10 11 12 14 14 15 15 15 16 16 16 17 16 16 17 17 17 18 18 18 16 14 12 10 10 10 10 9
2 3 5 3 1 3 4 4 4 6 6 5 5 7 8 4 4 4 4 2 2 3 5 4 4 8 6 5 8 11 11 9 7 7 7 7 7 7 6 6 6 6 6 5 5 4 4 6 8 9 9 10 10 10 10 10 11 12 13 14 15 15 16 16 16 16 16 17 17 17 18 18 17 17 17 17 16 15 13 12 11 12 12 12 11 10
3 4 5 3 3 5 5 3 2 3 1 2 4 5 6 5 4 6 6 3 2 2 3 4 3 8 6 5 8 9 8 7 5 7 7 6 6 6 5 6 6 6 5 5 6 5 6 8 9 9 10 10 10 10 11 12 13 14 15 16 16 17 17 17 17 18 18 18 18 17 17 17 15 13 13 13 12 11 12 13 13 12 11 11 11 11
3 4 4 1 2 3 5 4 1 1 1 2 4 2 4 4 4 5 5 4 3 3 3 1 5 7 5 3 5 6 5 4 3 6 7 5 5 5 5 6 6 5 5 5 5 4 5 7 8 9 9 9 10 10 11 12 13 14 14 15 16 16 16 16 16 16 16 17 17 16 15 15 14 12 12 13 13 14 15 16 15 13 13 13 12 11
2 3 4 4 2 3 4 4 3 3 3 3 3 2 3 3 6 4 2 3 2 5 6 4 7 6 5 3 1 1 1 1 4 5 6 5 5 5 5 5 5 5 5 5 5 4 5 6 7 8 9 10 11 11 12 13 13 14 14 13 14 15 15 15 15 14 14 15 16 17 15 15 15 16 16 17 18 18 17 16 15 14 13 14 13 14
4 4 5 6 7 7 8 7 6 5 3 1 1 4 6 7 7 5 3 3 5 6 7 8 8 3 3 3 2 2 2 5 7 5 3 4 4 5 5 5 5 5 5 5 5 5 5 5 6 8 10 11 12 12 13 14 15 15 15 14 15 16 17 17 16 16 16 16 17 18 18 18 19 19 19 19 18 17 17 16 15 15 15 16 18 19
4 4 6 8 11 11 10 7 5 9 8 9 11 11 10 10 9 6 5 5 7 4 7 12 6 3 1 2 4 7 7 7 7 5 4 5 5 4 4 4 4 4 5 5 5 5 5 5 6 9 11 11 12 14 15 16 17 17 18 18 18 18 18 19 19 19 19 20 20 21 21 21 20 20 20 19 18 18 17 17 18 19 20 20 21 22
5 4 8 10 10 8 6 5 7 12 13 15 13 10 9 9 8 8 9 11 7 5 10 8 7 5 6 7 9 10 8 6 7 6 6 5 3 3 3 3 4 4 4 4 5 6 7 7 6 8 11 13 14 15 16 17 18 18 19 19 20 20 20 21 21 22 22 22 23 23 22 22 21 20 20 20 20 20 21 22 22 23 23 23 24 24
6 6 7 8 6 4 3 7 11 12 11 10 11 11 10 9 11 14 18 13 9 9 11 5 9 10 8 7 10 9 7 5 5 5 5 4 4 5 5 5 5 5 5 6 7 7 8 7 6 8 12 14 15 16 16 17 18 19 20 20 21 21 22 22 23 24 24 24 24 24 23 23 22 22 22 22 24 25 25 26 26 26 26 26 25 24
5 6 4 7 5 3 2 6 10 11 9 8 11 14 13 13 16 20 22 15 10 14 8 5 2 10 6 8 11 6 4 3 1 2 4 5 5 5 6 6 7 7 8 9 9 8 7 7 7 10 13 15 16 17 18 18 20 21 22 22 22 23 23 23 24 24 25 25 25 25 25 24 24 25 25 26 27 28 28 28 28 28 27 26 25 23
3 4 3 7 4 3 2 4 4 7 9 9 10 12 14 18 20 21 20 11 6 13 11 4 10 10 4 9 8 3 1 4 2 3 5 5 5 7 7 7 8 9 9 9 8 7 7 7 8 11 14 16 18 19 20 21 23 24 24 24 24 24 24 24 25 26 26 27 27 27 27 27 28 28 28 29 29 30 30 30 29 28 27 26 25 23
3 2 1 6 5 5 3 6 5 4 5 6 9 14 17 18 18 16 12 8 9 15 14 10 12 9 5 6 4 1 2 5 6 8 7 5 6 9 9 9 9 10 10 9 8 8 9 10 11 13 16 19 21 22 23 24 25 26 26 27 27 26 26 26 27 28 28 28 29 29 30 30 31 31 31 31 30 30 30 29 29 28 27 26 25 23
6 6 2 5 7 4 1 7 7 7 4 4 10 16 19 17 14 11 8 10 15 15 11 12 12 6 5 6 5 3 5 7 9 9 7 6 7 8 9 11 12 12 10 9 9 10 11 12 14 18 21 23 24 24 24 25 25 26 28 29 29 29 29 29 30 31 30 30 30 31 33 33 33 33 32 31 31 30 30 29 28 27 26 25 24 23
7 9 5 5 6 3 2 7 7 5 7 9 7 13 20 19 16 14 12 15 17 13 11 13 8 4 7 7 7 8 9 9 8 8 7 5 7 8 9 10 11 10 9 9 10 11 11 11 14 18 21 23 24 24 24 24 25 26 29 31 31 31 31 31 32 32 32 32 31 33 35 35 35 34 32 32 31 30 30 29 28 27 25 25 24 23
8 8 4 3 4 3 3 7 6 8 11 7 3 5 15 18 18 18 19 17 15 14 15 15 12 6 7 7 7 9 9 8 6 8 7 5 8 9 9 11 11 10 10 11 11 11 11 14 17 19 21 24 24 25 25 25 27 28 29 31 32 32 32 32 32 32 32 32 32 33 35 35 35 34 33 32 31 30 29 28 27 26 25 24 24 23
9 7 3 3 3 3 3 6 8 7 5 5 6 2 6 9 11 13 14 13 10 12 14 17 18 12 8 6 6 5 6 5 5 6 8 7 8 9 10 11 11 12 13 14 15 16 18 22 23 23 25 26 26 27 27 27 29 29 29 30 32 32 32 32 33 32 32 32 31 32 34 35 35 34 32 31 30 30 29 28 27 26 25 24 23 22
9 8 5 3 2 3 4 5 4 5 7 8 8 4 5 7 9 10 9 12 12 14 14 17 19 12 7 7 5 4 2 2 5 7 8 7 7 10 11 11 10 12 14 14 15 18 21 23 22 23 26 27 27 28 28 29 31 31 30 30 31 32 32 32 32 31 32 32 31 32 33 34 35 34 32 31 30 30 29 27 27 25 24 24 23 22
5 6 7 6 3 4 5 3 2 5 9 9 5 5 8 10 11 12 8 11 12 14 15 15 15 11 7 7 6 5 3 2 7 9 6 7 10 11 10 6 4 8 12 13 13 15 19 23 23 25 28 29 28 28 30 32 32 31 30 30 31 31 30 30 30 30 30 30 30 31 32 33 33 32 31 30 30 29 28 27 26 25 23 23 22 21
5 2 5 7 3 3 5 5 5 8 9 5 6 8 10 11 11 11 3 9 7 9 12 13 13 11 9 9 9 8 6 6 11 8 6 10 11 8 6 2 1 5 10 14 18 21 23 26 27 27 29 29 29 29 32 33 32 31 29 29 30 30 29 29 29 30 31 31 31 32 32 32 32 31 31 30 29 29 28 27 26 25 23 22 21 21
5 3 3 5 4 5 6 5 5 6 6 5 7 8 8 12 14 12 3 9 6 9 12 14 14 14 12 11 9 8 8 10 10 6 7 9 5 2 5 5 5 8 10 14 19 23 27 29 30 30 30 31 32 32 34 34 33 31 30 30 31 30 30 31 32 32 33 32 32 32 32 31 31 30 30 30 29 28 28 26 25 24 23 21 21 21
3 1 2 5 5 6 7 6 4 5 6 7 6 7 11 12 11 8 9 9 7 9 10 12 14 13 10 10 7 6 10 10 5 3 4 6 4 3 4 6 8 10 13 17 21 25 28 29 29 31 31 32 34 35 36 36 34 32 31 32 32 32 33 34 34 34 34 33 32 32 31 30 30 29 29 29 29 28 27 25 24 23 22 22 21 21
4 2 1 3 5 4 4 4 4 7 6 6 5 5 9 10 5 8 8 4 5 8 7 8 10 8 8 10 9 9 10 6 1 1 3 5 6 5 5 8 10 11 14 19 23 26 28 26 26 29 30 32 36 37 38 37 35 32 32 32 32 34 35 36 35 35 34 33 32 31 30 30 29 29 29 28 28 27 26 25 24 22 22 22 21 20
7 6 3 4 5 3 3 4 5 7 5 11 12 4 5 6 7 7 3 1 4 7 7 7 9 8 9 10 10 11 9 3 2 3 4 4 5 5 6 8 9 11 15 20 23 28 29 28 27 29 30 33 35 36 37 37 35 33 33 32 33 35 36 35 35 34 33 32 31 30 29 29 28 28 28 27 27 27 26 25 23 22 21 21 20 20
6 7 6 6 5 4 5 8 8 5 7 14 15 9 9 9 6 7 8 5 4 5 6 7 7 8 10 10 10 10 7 4 4 5 5 4 4 5 6 7 8 12 15 18 21 26 27 27 26 26 28 31 33 35 36 37 36 34 32 32 34 35 35 34 33 32 31 31 30 29 29 28 28 28 28 27 26 26 26 25 23 22 20 19 19 19
9 9 6 5 5 5 7 9 7 3 6 9 7 7 11 10 5 6 9 7 5 5 5 6 7 8 9 9 8 7 7 6 6 6 6 6 6 6 7 7 10 13 14 16 19 22 22 23 24 25 25 27 30 32 33 33 34 33 31 31 35 36 35 34 32 31 31 31 30 30 29 29 28 28 27 26 26 25 25 24 23 22 21 19 18 18
6 6 4 3 4 5 6 6 4 2 3 6 4 3 7 8 4 5 7 6 6 7 6 6 8 9 9 8 7 6 7 7 7 6 6 6 6 6 7 8 10 14 16 17 20 22 21 22 24 25 25 25 28 31 31 31 33 34 34 35 36 36 36 35 34 32 32 31 31 31 30 29 29 28 27 26 24 23 23 23 22 21 21 19 18 17
3 4 5 3 5 6 7 6 6 5 6 9 6 2 2 3 3 4 5 5 6 7 7 6 6 7 8 9 9 8 7 7 8 7 6 6 7 8 8 8 11 15 17 19 22 24 24 24 25 26 26 27 28 30 31 30 31 32 35 37 37 36 35 35 34 33 33 32 31 31 30 30 29 28 27 26 25 23 22 21 21 20 20 19 18 18
3 5 5 4 6 7 6 5 4 2 2 4 4 2 3 5 5 3 2 3 3 5 5 4 4 6 7 7 8 8 7 8 9 9 8 7 7 8 7 9 13 15 17 20 23 25 26 26 26 26 27 28 29 30 30 30 29 31 34 37 37 36 35 34 33 33 33 32 32 31 30 30 29 29 28 26 25 24 22 21 20 19 18 17 16 16
4 6 6 5 6 5 4 1 3 2 3 4 6 7 6 6 6 4 2 2 4 5 5 4 3 4 6 7 7 8 8 9 10 9 9 8 8 8 9 12 15 17 19 21 24 26 26 26 26 27 27 28 29 29 30 29 29 31 35 37 37 37 36 35 34 33 33 32 31 31 30 29 29 28 28 27 25 22 20 19 18 18 17 15 13 11
6 6 4 4 7 9 8 7 8 6 2 6 9 10 8 5 7 6 4 4 5 5 6 6 4 2 3 5 6 8 8 9 9 8 9 8 9 10 12 14 16 18 19 21 23 24 24 25 26 27 27 27 28 29 30 30 30 32 36 38 38 38 38 37 35 33 32 31 31 30 30 29 28 27 27 26 25 23 20 17 15 16 16 15 12 9
7 8 8 8 10 10 8 10 10 6 4 7 9 9 7 6 8 8 7 7 7 6 7 7 6 3 3 4 5 7 7 7 8 9 8 7 8 11 14 17 18 18 20 23 23 23 23 23 24 26 26 27 29 30 31 31 32 35 37 39 39 39 39 38 36 34 32 32 31 31 30 29 28 27 26 25 25 25 23 21 17 14 13 13 12 11
Wind_Direction
165 173 196 196 193 194 201 195 192 216 192 169 182 190 196 190 221 232 236 290 142 153 231 214 226 247 250 259 252 264 325 265 253 253 249 244 234 227 223 226 221 219 228 224 217 216 215 215 215 214 214 215 216 216 216 215 215 216 214 212 212 213 213 213 213 212 212 212 212 214 217 219 222 224 226 230 232 235 237 237 235 234 234 235 236 237
174 196 206 194 181 186 192 182 190 216 205 173 189 207 221 203 224 249 234 303 41 161 254 256 242 258 256 255 256 251 269 250 236 233 240 238 235 233 228 230 228 231 239 222 216 218 216 215 215 214 213 213 215 216 215 215 216 216 214 213 212 212 211 212 213 212 212 213 212 213 215 218 221 223 225 227 231 233 236 237 237 236 236 236 235 236
200 209 199 182 172 177 189 185 195 214 207 200 198 185 223 221 232 279 267 307 27 168 265 327 238 256 258 257 262 233 228 241 227 219 230 230 231 234 226 227 230 238 242 221 216 219 215 215 213 212 213 213 215 217 216 216 216 215 214 213 213 213 212 213 213 213 214 215 216 216 218 219 221 224 227 229 232 234 236 237 238 238 238 238 237 236
206 212 187 183 178 182 197 200 199 211 208 204 185 167 221 212 180 252 261 261 58 122 199 85 294 272 270 278 271 236 227 246 238 220 228 227 226 232 227 222 219 223 228 223 224 222 215 214 212 211 213 214 215 216 216 216 216 214 214 214 214 214 215 214 214 216 217 218 217 217 220 222 223 227 229 231 234 236 236 236 237 238 238 239 239 237
212 192 175 185 189 190 201 210 203 196 207 220 195 179 207 200 192 214 196 119 35 16 98 96 353 301 265 266 264 250 233 250 245 226 237 239 234 242 250 240 223 220 220 216 220 220 212 212 213 213 213 213 214 215 216 216 215 215 215 215 216 216 216 216 217 218 218 216 215 215 217 221 223 226 228 228 231 232 233 234 235 235 236 238 238 239
221 203 171 180 195 197 202 211 202 177 191 236 214 196 200 198 195 169 127 97 61 319 287 131 332 290 295 267 253 274 309 261 244 225 237 241 238 241 248 243 232 230 227 220 221 219 212 211 213 214 214 213 214 217 218 218 217 217 216 216 216 216 217 217 219 219 217 215 213 212 212 213 215 217 221 224 226 226 228 230 232 234 236 237 238 240
215 204 173 181 191 194 206 219 204 172 171 232 228 196 177 167 157 146 146 118 125 226 290 93 162 254 313 299 255 288 306 269 266 253 247 242 236 231 232 235 230 231 232 228 232 227 219 216 213 214 214 214 216 219 220 220 219 218 217 217 216 216 217 217 218 218 216 214 213 213 214 214 214 215 220 224 226 226 226 228 230 233 235 236 238 241
183 181 181 183 183 191 203 216 203 166 160 226 228 163 138 138 151 159 155 135 170 194 360 30 130 217 287 274 265 305 299 281 281 265 256 246 236 231 230 232 226 226 225 220 225 223 220 217 213 214 215 215 218 220 219 219 220 219 218 218 217 217 217 217 217 217 216 214 214 215 216 218 218 219 223 225 226 228 229 230 231 234 235 236 237 240
157 176 188 178 179 198 199 204 188 161 172 231 196 144 140 147 151 151 138 116 88 122 315 305 123 169 268 274 296 331 292 284 280 264 259 247 237 235 234 234 231 233 230 222 223 223 223 221 218 218 218 218 219 218 218 219 220 220 219 218 218 218 218 217 217 217 217 217 216 217 217 219 221 223 225 227 228 229 230 233 234 235 236 237 237 238
189 193 189 172 181 200 191 201 185 172 193 201 139 109 85 88 94 95 112 103 61 108 230 246 187 175 268 280 299 325 275 264 265 265 264 255 248 244 241 239 235 235 232 227 226 226 229 228 227 225 224 223 221 218 218 219 220 220 219 219 219 219 219 218 218 217 218 218 218 218 219 220 223 224 225 227 229 229 230 233 235 235 235 237 238 237
292 279 205 170 187 192 174 175 179 180 174 134 117 92 69 52 48 55 64 88 95 265 248 236 204 180 262 278 250 229 230 228 236 262 276 278 273 255 246 242 230 224 219 217 218 222 224 224 226 226 225 226 224 221 220 219 219 219 219 219 219 221 220 219 219 218 219 219 219 220 221 221 222 223 223 224 226 227 228 230 233 233 234 236 238 236
358 112 224 203 180 133 124 104 43 156 150 119 116 116 100 21 16 33 1 43 167 248 260 246 207 170 223 262 245 235 245 228 213 239 266 277 277 267 264 254 229 214 202 197 199 208 204 192 197 205 212 219 221 220 220 220 221 220 220 220 220 221 221 220 220 219 220 220 220 221 222 222 222 222 223 223 224 226 227 229 231 232 232 233 234 233
97 206 265 327 237 136 126 126 50 43 122 112 130 136 128 77 38 143 273 274 213 245 260 240 199 192 233 253 256 260 261 244 217 220 242 256 256 254 256 246 224 207 194 190 192 201 201 194 195 193 196 204 208 213 217 219 221 221 221 221 221 221 221 221 221 221 221 221 221 222 222 223 223 224 224 225 227 229 231 231 229 228 229 229 230 230
206 294 298 181 263 191 154 167 162 157 167 138 148 150 146 138 131 195 237 291 247 256 273 252 227 252 269 261 251 249 253 250 225 224 235 234 230 232 242 245 243 244 225 216 219 213 211 212 208 205 206 209 209 209 211 215 218 220 220 220 222 223 223 222 222 222 222 223 224 224 224 224 225 225 226 228 230 233 233 231 228 228 229 230 229 227
182 245 233 180 203 188 178 192 164 144 147 174 165 143 153 160 156 189 205 196 217 252 281 261 215 195 198 246 247 237 255 274 257 243 241 231 236 249 268 272 263 263 260 255 256 242 230 220 212 213 216 220 221 216 212 211 212 214 216 217 220 221 222 222 223 223 223 224 224 225 225 226 227 228 229 229 231 233 231 228 226 226 228 228 228 226
178 211 265 253 227 157 175 234 152 131 150 208 150 121 174 181 145 148 180 179 170 152 240 220 228 216 205 274 280 252 261 283 275 270 256 231 241 246 252 254 247 252 262 263 258 251 248 232 219 219 221 226 226 220 216 214 212 212 212 213 216 218 220 220 221 221 222 223 223 224 224 225 225 226 226 226 226 227 227 226 225 223 222 222 219 210
170 188 317 326 1 131 164 198 185 147 169 173 127 178 215 163 116 118 165 134 102 151 238 206 248 289 316 291 292 297 273 273 274 273 255 234 237 233 234 239 239 246 256 256 243 241 250 233 219 221 221 224 223 216 218 220 220 219 216 214 213 214 215 215 216 217 217 218 219 219 220 220 221 221 220 220 218 217 216 214 211 207 201 197 191 184
154 127 326 36 127 283 187 139 44 16 140 140 173 198 190 111 97 109 135 34 66 197 265 259 224 276 311 259 305 326 273 259 252 239 243 248 246 241 241 238 240 248 258 259 243 240 254 213 197 205 209 216 218 217 220 220 220 219 217 216 214 211 209 208 209 209 209 210 210 210 211 211 212 212 212 212 208 200 192 186 183 183 183 184 186 188
136 131 310 345 169 282 350 104 139 332 81 146 187 183 139 159 200 127 145 169 162 210 275 300 259 250 200 216 289 287 239 241 244 225 224 240 234 230 238 240 246 254 254 248 225 217 217 169 170 178 183 196 201 204 207 202 203 205 208 212 211 209 206 202 201 200 199 200 199 198 198 199 200 200 200 198 191 185 181 176 174 176 181 190 199 206
122 127 236 287 234 287 10 118 186 209 11 49 134 161 115 136 170 174 162 160 173 199 235 290 306 257 222 215 226 235 232 227 227 217 216 227 223 219 226 229 234 231 223 219 207 201 179 147 159 170 175 182 182 185 188 187 191 195 197 198 196 194 192 190 192 191 190 190 189 186 184 184 184 183 183 181 178 177 175 175 177 183 190 195 199 200
115 119 173 271 332 176 180 216 192 177 164 145 154 177 190 98 120 169 156 131 150 169 182 218 272 257 244 213 201 224 240 229 210 205 222 229 221 218 217 211 210 207 210 214 195 180 156 145 153 162 169 170 169 171 176 179 183 183 183 181 177 175 172 174 177 180 181 179 178 176 170 168 169 169 170 170 171 172 173 180 185 184 183 179 177 181
146 120 144 159 191 190 222 263 199 175 179 177 178 189 189 163 130 172 211 196 129 159 175 178 234 258 251 206 200 217 231 232 208 195 222 236 223 221 216 203 197 191 196 197 175 169 170 160 154 154 158 158 158 161 165 169 171 169 169 169 169 168 167 168 168 169 170 167 167 167 162 159 159 161 165 166 168 172 176 183 182 172 169 168 171 180
118 104 110 148 197 204 247 277 174 174 194 183 207 198 178 172 153 169 204 207 149 188 160 137 231 264 254 204 204 220 234 246 224 200 219 239 228 221 212 202 198 189 185 174 167 175 171 161 153 148 151 153 152 154 157 161 164 164 166 167 167 167 165 164 164 163 162 161 162 162 162 164 162 161 168 171 175 178 174 173 175 178 181 181 182 185
108 104 99 62 302 295 307 326 56 96 58 231 238 182 154 187 159 150 182 176 177 196 147 143 250 262 274 250 222 238 254 266 238 203 204 216 221 212 194 185 184 179 172 160 154 147 132 136 139 138 144 150 150 151 154 158 160 161 163 167 170 171 169 167 168 169 171 171 171 171 172 178 185 187 183 176 171 168 163 164 170 179 186 186 184 180
130 131 126 109 75 3 332 323 290 235 198 212 226 152 157 140 98 107 142 112 206 211 164 190 238 244 277 315 350 293 308 216 226 211 196 200 204 200 188 178 174 162 152 143 129 114 115 126 136 142 148 152 152 153 154 156 157 157 158 162 165 166 166 168 170 169 169 172 175 178 176 173 175 174 167 162 160 160 163 168 172 174 176 174 165 155
134 155 149 138 154 183 198 209 217 194 170 209 182 164 180 165 149 164 124 123 227 214 171 207 232 243 312 17 57 262 216 199 229 243 245 235 211 199 188 177 174 159 148 145 134 131 137 137 143 151 156 158 158 157 156 156 157 156 157 159 160 159 159 160 163 161 159 159 159 161 161 161 160 158 157 159 161 163 168 170 170 165 159 154 147 139
106 163 187 179 186 192 189 197 164 129 148 200 199 182 183 191 182 145 119 192 205 161 200 223 200 127 224 161 186 228 213 205 231 239 241 247 236 223 200 169 161 150 145 145 140 141 144 148 159 161 161 162 161 160 160 159 159 159 158 158 160 162 161 159 161 161 159 157 154 152 153 157 159 160 162 164 165 165 163 160 157 150 145 142 138 134
105 189 200 188 201 202 169 167 147 144 178 199 188 179 185 187 170 157 199 210 154 139 229 222 127 140 222 205 201 217 212 220 244 235 230 236 218 191 160 132 130 135 134 141 155 163 166 168 170 164 162 163 163 163 163 161 160 160 158 158 160 163 163 162 162 161 159 158 156 154 155 158 160 163 164 163 160 156 152 149 146 143 140 139 135 132
139 196 192 164 201 234 153 160 159 161 186 183 165 177 184 176 176 197 219 209 156 197 230 154 142 198 222 222 224 220 204 216 237 223 216 209 175 150 136 135 148 161 166 175 183 184 179 174 170 166 166 166 166 166 165 162 160 159 159 159 161 163 165 166 165 162 161 159 157 156 156 158 159 159 157 155 151 148 146 143 141 140 138 136 133 129
163 191 171 140 181 238 147 170 171 161 164 166 176 182 177 182 195 209 221 212 195 231 248 68 224 238 215 220 239 241 204 196 204 189 187 187 169 140 141 157 175 188 191 193 193 187 180 174 170 171 172 172 172 169 166 164 163 162 162 161 162 163 164 166 165 161 159 157 154 154 154 154 153 152 151 149 146 144 142 141 139 138 136 133 130 128
168 186 156 119 146 227 141 137 160 157 158 171 190 191 186 196 206 216 223 210 208 251 262 300 285 275 223 207 228 262 146 127 135 224 213 196 162 145 162 182 190 200 205 201 193 181 180 181 175 176 178 178 177 172 169 168 165 164 163 161 162 162 162 165 163 159 157 154 151 152 152 150 149 148 148 146 144 142 141 140 138 137 134 132 130 129
121 142 86 106 150 231 178 126 123 110 123 169 204 206 201 203 209 217 218 189 199 232 240 247 260 257 208 184 178 163 141 148 201 234 230 212 172 163 180 191 196 208 206 196 188 182 187 190 185 183 182 181 179 175 173 170 166 163 161 160 161 160 161 164 160 156 154 152 151 151 150 149 148 147 146 145 143 141 140 139 138 136 134 133 131 131
134 135 123 142 173 237 198 136 130 101 100 229 225 205 200 205 210 212 213 209 212 217 219 230 236 211 155 146 135 158 196 199 219 227 217 207 190 186 194 195 201 209 201 191 191 190 195 199 193 186 180 179 180 177 173 170 166 164 160 159 159 159 160 161 158 155 153 151 153 152 150 150 148 146 145 144 142 141 140 139 137 136 136 134 133 133
151 150 163 168 167 210 180 131 117 134 199 235 226 185 189 198 197 199 214 219 215 214 222 235 236 150 131 147 157 184 207 210 219 228 220 190 177 195 211 210 208 201 188 193 200 198 201 203 198 189 179 177 178 174 171 170 167 164 160 158 157 158 158 157 155 153 152 152 154 153 151 151 149 146 145 144 143 142 141 140 138 137 137 136 134 133
149 145 156 148 129 162 150 119 139 202 219 249 311 173 187 192 187 197 218 221 212 217 230 244 248 207 164 176 189 193 206 222 243 253 250 211 179 187 205 215 211 197 189 196 200 201 199 194 192 186 176 174 173 170 169 169 165 162 159 157 156 155 156 155 152 152 152 153 154 153 152 151 148 146 145 144 144 143 142 141 139 138 137 136 134 131
147 143 130 108 116 131 131 151 188 223 260 296 305 269 179 176 176 196 229 240 226 219 225 236 242 227 183 190 215 207 214 246 291 277 248 225 202 193 202 210 207 199 198 198 196 196 193 190 188 181 172 169 169 168 167 166 163 160 158 156 154 154 155 154 152 152 153 154 154 154 153 151 148 146 145 145 145 143 142 141 139 139 138 136 133 129
148 148 133 135 166 133 141 193 233 314 306 261 249 224 157 159 165 176 221 247 228 212 215 227 237 231 187 183 207 214 228 298 307 272 245 225 217 212 212 214 208 204 206 204 200 195 188 185 182 173 166 163 164 166 165 163 163 160 157 156 154 153 155 154 153 153 154 155 155 154 153 151 149 147 146 147 147 144 142 141 139 139 139 137 133 129
136 156 158 167 185 108 121 188 246 271 256 238 214 178 163 166 165 160 193 245 228 206 208 221 232 227 187 178 192 177 147 245 259 256 231 214 228 225 220 234 232 208 203 193 181 174 170 172 171 167 164 161 162 166 166 164 163 160 156 155 154 153 154 153 153 154 155 155 155 154 153 152 152 150 149 149 148 145 143 141 140 140 140 138 135 130
79 72 132 142 154 134 144 177 198 223 242 218 170 178 170 159 140 122 163 258 229 185 194 209 224 220 189 186 193 163 145 219 249 251 202 205 226 218 194 206 84 163 182 178 170 164 161 163 163 161 161 161 162 167 167 164 163 160 157 156 155 154 154 154 155 157 157 157 156 156 155 155 155 154 152 150 148 145 144 143 141 141 141 139 135 131
75 46 105 142 173 168 165 193 217 234 246 213 188 187 162 143 121 109 197 255 206 166 182 192 209 218 199 189 186 162 177 220 242 246 204 198 204 150 158 171 150 145 152 159 164 163 159 159 159 159 163 165 166 168 168 166 164 162 160 158 157 157 159 159 160 160 159 159 159 158 158 158 157 156 154 151 148 146 146 145 144 143 142 139 136 133
92 91 154 171 176 166 174 208 252 262 239 214 198 174 146 128 119 147 210 231 191 179 187 186 199 210 192 177 174 182 212 226 238 251 202 169 140 116 130 140 144 147 148 151 156 157 156 159 162 163 166 169 168 169 169 167 165 164 162 160 161 163 164 163 162 162 162 161 161 160 160 159 158 156 154 152 150 148 147 146 146 145 143 141 139 135
153 146 164 162 158 158 173 197 263 271 231 171 146 165 154 138 160 208 213 203 180 185 186 187 196 191 169 175 190 207 222 226 151 159 189 164 156 151 135 131 130 135 144 150 155 157 156 159 163 165 168 171 171 171 171 169 167 166 164 164 165 166 166 165 164 164 164 162 161 161 159 158 158 156 154 153 153 151 148 146 147 146 143 142 140 136
168 157 184 187 167 148 154 182 231 261 216 138 123 143 207 187 195 201 174 138 186 175 162 180 195 185 174 187 206 217 219 205 138 183 193 180 160 143 150 157 148 147 152 155 161 165 162 161 165 169 170 172 173 172 172 171 169 167 167 168 168 168 167 166 165 165 163 162 160 159 158 158 157 157 156 155 156 153 149 148 148 146 145 144 142 137
178 171 186 203 181 144 171 203 215 217 177 154 146 167 207 207 185 156 148 165 210 187 163 179 198 197 188 191 204 211 205 193 195 194 186 183 170 152 161 167 159 160 163 163 166 169 166 163 165 167 169 172 174 174 175 175 172 169 169 170 168 167 166 165 165 163 162 161 159 158 158 158 158 159 158 157 158 155 151 150 150 148 147 147 144 139
207 194 174 183 188 174 192 215 216 186 175 177 168 178 191 191 182 159 155 161 199 203 174 174 195 202 198 190 184 186 195 199 193 184 181 184 177 166 170 173 170 168 168 166 167 168 167 165 162 161 165 172 175 176 178 180 176 171 170 170 169 168 166 165 164 164 162 161 161 161 161 161 160 161 160 159 161 159 155 154 153 150 149 148 146 141
222 188 130 130 193 226 251 229 187 121 189 206 232 245 199 187 188 179 165 166 190 190 175 177 190 193 193 183 166 177 203 197 178 178 185 177 173 174 171 170 173 171 167 166 167 168 167 163 160 161 164 171 178 181 182 184 182 177 173 172 170 169 169 167 166 165 163 163 164 164 164 163 161 161 161 161 163 162 159 158 157 154 151 150 147 143
263 180 149 144 174 203 239 220 170 158 195 204 217 269 214 186 185 181 186 198 193 179 182 195 186 169 172 176 175 186 195 178 166 178 184 172 178 185 178 173 177 177 175 172 170 168 166 163 163 167 169 173 181 184 184 186 186 182 177 173 171 170 170 168 167 166 165 166 166 166 166 166 164 164 164 164 165 162 159 159 160 158 155 154 151 145
221 172 168 182 179 186 217 219 176 169 231 215 207 201 188 191 190 180 203 212 168 144 156 170 150 146 162 179 178 169 167 173 178 179 181 186 189 186 185 185 182 179 178 176 173 172 171 170 171 172 174 176 180 183 185 186 185 182 178 174 172 171 170 169 169 169 169 169 169 169 169 170 169 168 167 166 165 163 160 159 160 158 155 154 154 150
133 157 177 186 191 215 263 253 117 62 345 281 243 234 227 203 178 153 120 130 124 117 121 116 116 150 168 173 164 151 159 188 195 181 178 187 188 186 191 188 182 180 179 178 178 178 177 177 177 176 177 179 181 182 184 185 185 183 179 175 174 173 171 171 172 172 172 172 171 171 172 173 172 171 168 165 162 160 158 158 158 155 149 145 145 146
144 171 173 158 190 225 235 199 162 144 188 233 227 222 222 192 152 138 138 152 154 152 148 132 91 79 154 168 163 160 171 192 196 186 184 191 192 192 189 181 178 180 179 177 179 182 183 183 182 180 180 181 182 182 184 185 185 184 181 177 176 176 175 175 174 173 174 174 173 174 175 175 173 172 169 165 162 158 153 150 153 154 149 142 138 137
182 183 169 172 205 225 211 183 171 158 186 217 209 198 195 173 154 163 178 181 180 179 166 152 138 144 190 197 185 181 183 185 183 183 190 201 198 191 185 181 178 177 177 177 179 182 186 187 185 184 183 183 183 184 185 186 186 184 182 180 179 179 180 179 176 175 175 176 177 177 177 176 175 173 171 169 166 163 157 152 150 151 147 142 140 140